AirNav   Air Wisconsin pilot careers
 
 754 users online  

L08 Borrego Valley Airport
Borrego Springs, California, USA

GOING TO BORREGO SPRINGS?


FAA INFORMATION EFFECTIVE 04 JANUARY 2018

Location

FAA Identifier: L08
Lat/Long: 33-15-32.5000N / 116-19-15.5000W
33-15.541667N / 116-19.258333W
33.2590278 / -116.3209722
(estimated)
Elevation: 520 ft. / 158.5 m (surveyed)
Variation: 13E (2000)
From city: 3 miles E of BORREGO SPRINGS, CA
Time zone: UTC -8 (UTC -7 during Daylight Saving Time)
Zip code: 92004

Airport Operations

Airport use: Open to the public
Activation date: 04/1947
Control tower: no
ARTCC: LOS ANGELES CENTER
FSS: SAN DIEGO FLIGHT SERVICE STATION
NOTAMs facility: SAN (NOTAM-D service available)
Attendance: 0800-1600
Pattern altitude: 1520 ft. MSL
Wind indicator: lighted
Segmented circle: yes
Lights: ACTVT MIRL RWY 08/26; TWY LGTS - CTAF (5 CLICKS ON).
Beacon: white-green (lighted land airport)
Operates sunset to sunrise.

Airport Communications

CTAF/UNICOM: 122.8
WX AWOS-1: 126.575 (760-767-3308)
  • STAFFED 0800-1600
  • APCH/DEP SERVICE PRVDD BY LOS ANGELES ARTCC ON FREQS 128.6/291.7 (JULIAN RCAG).

Nearby radio navigation aids

VOR radial/distance  VOR name  Freq  Var
JLIr047/15.1JULIAN VORTAC114.0015E
TRMr187/23.6THERMAL VORTAC116.2013E
PSPr159/37.1PALM SPRINGS VORTAC115.5013E

Airport Services

Fuel available: 100LL
SELF SVC 24 HR.
Parking: tiedowns
Airframe service: NONE
Powerplant service: NONE
Bottled oxygen: NONE
Bulk oxygen: NONE

Runway Information

Runway 8/26

Dimensions: 5011 x 75 ft. / 1527 x 23 m
RWY 08/26 400 FT BLAST PAD BYD EACH END OF RWY AREA.
Surface: asphalt, in good condition
Weight bearing capacity: 
Single wheel: 30.0
Double wheel: 54.0
Double tandem: 90.0
Runway edge lights: medium intensity
RUNWAY 8  RUNWAY 26
Latitude: 33-15.533333N33-15.550000N
Longitude: 116-19.750000W116-18.766667W
Elevation: 519.1 ft.519.9 ft.
Gradient: 0.1%0.1%
Traffic pattern: rightleft
Runway heading: 076 magnetic, 089 true256 magnetic, 269 true
Markings: basic, in good conditionnonprecision, in good condition
Visual slope indicator: 2-light PAPI on left (3.00 degrees glide path)2-light PAPI on left (3.00 degrees glide path)
Runway end identifier lights: nono
Touchdown point: yes, no lightsyes, no lights

Airport Ownership and Management from official FAA records

Ownership: Publicly-owned
Owner: COUNTY OF SAN DIEGO
1960 JOE CROSSON DRIVE
EL CAJON, CA 92020-1235
Phone 619-956-4800
Manager: PETER DRINKWATER
1960 JOE CROSSON DRIVE
EL CAJON, CA 92020-1235
Phone 760-767-7415
EMERG: 619-508-9171

Airport Operational Statistics

Aircraft based on the field: 14
Single engine airplanes: 10
Helicopters: 2
Ultralights: 2
    
Aircraft operations: avg 61/day *
77% transient general aviation
18% military
5% local general aviation
* for 12-month period ending 31 May 2017

Additional Remarks

140 FT TWR 1600 FT N OF RWY 08.
TSNT TIE-DOWN RAMP RSTRD TO ACFT WITH WINGSPAN 40 FT OR LESS. ACFT WITH GTR THAN 40 FT WINGSPAN PARK ON PORTION OF TSNT RAMP E OF A6.
MIL ROTORCRAFT OPS RSTRD TO REMAIN ON OR OVER PAVEMENT AREA, TGL RSTRD TO RWY.
HOVERS, SKID LNDGS, AUTO-ROTATIONS PROHIBITED.
DURING HOT WX HVY ACFT PRKG RSTRD TO CONCRETE PADS ON OUTER TSNT RAMP.
AEROBATIC BOX N SIDE OF ARPT DURING DALGT HRS FROM SFC TO 5000 FT MSL, CK NOTAMS FOR ACT.
NOISE SENSITIVE AREA W-NW. DO NOT OVERFLY ELEMENTARY SCHOOL 1 NM W OF ARPT.
BE AWARE OF FRQ CHGS IN WIND DIR, STRONG UP/DN DRAFTS AND TURB POSS DURG HIGH WIND CONDS.
ALL ACFT TFC PATS TO S.
COYOTES AND MIGRATORY BIRDS OCNLLY ON OR IN VACINITY OF ARPT.
PPR FOR ALL MIL ACFT, CTC AMGR.
ACFT MUST SELF-ANNOUNCE ON CTAF PRIOR TO LDG OR TKOF.

Instrument Procedures

NOTE: All procedures below are presented as PDF files. If you need a reader for these files, you should download the free Adobe Reader.

NOT FOR NAVIGATION. Please procure official charts for flight.
FAA instrument procedures published for use between 4 January 2018 at 0901Z and 1 February 2018 at 0900Z.

 
IAPs - Instrument Approach Procedures
RNAV (GPS) RWY 26   download (257KB)
 
Departure Procedures
KUMBA ONE (RNAV)   download (152KB)
 
ZUNGU ONE (OBSTACLE) (RNAV)   download (156KB)
NOTE: Special Take-Off Minimums/Departure Procedures apply   download (132KB)

Other nearby airports with instrument procedures:

KTRM - Jacqueline Cochran Regional Airport (23 nm N)
KUDD - Bermuda Dunes Airport (29 nm N)
KRNM - Ramona Airport (33 nm SW)
KPSP - Palm Springs International Airport (35 nm N)
KCLR - Cliff Hatfield Memorial Airport (41 nm E)
 
Loc | Ops | Rwys | IFR | FBO | Links
Com | Nav | Svcs | Stats | Notes


 
Area around L08 (Borrego Valley Airport)
 
Road maps at: MapQuest Bing Google
 
Aerial photo
WARNING: Photo may not be current or correct
Aerial photo of L08 (Borrego Valley Airport)
Photo courtesy of helihigh.com & Mark Robinson
Photo taken 21-Aug-2012
looking west.

Do you have a better or more recent aerial photo of Borrego Valley Airport that you would like to share? If so, please send us your photo.

 
Sectional chart

 
Airport distance calculator
Flying to Borrego Valley Airport? Find the distance to fly.

From to L08

Sunrise and sunset
Times for 22-Jan-2018
 Local
(UTC-8)
 Zulu
(UTC)
Morning civil twilight06:2114:21
Sunrise06:4814:48
Sunset17:0601:06
Evening civil twilight17:3301:33

Current date and time
Zulu (UTC)  23-Jan-2018 04:35:10
Local (UTC-8)  22-Jan-2018 20:35:10
 
METAR
KTRM 
24nm N 
230352Z AUTO 00000KT 10SM CLR 09/01 A3018 RMK AO2 SLP218 T00890011
KRNM 
33nm SW 
230353Z 00000KT 10SM CLR 04/M01 A3016 RMK AO2 SLP215 T00391006
KPSP 
35nm N 
230353Z 00000KT 10SM CLR 13/M03 A3021 RMK AO2 SLP231 T01331033 PNO $
KCZZ 
38nm S 
230352Z AUTO 07009KT 04/M09 A3014 RMK AO1 SLP203 T00391089
KSEE 
42nm SW 
230415Z AUTO 29004KT 10SM CLR 09/01 A3016 RMK AO2
KNJK 
42nm SE 
230356Z 25007KT 10SM CLR 12/M11 A3019 RMK AO2 SLP240 T01171106
KF70 
45nm NW 
230415Z AUTO 00000KT 10SM CLR 10/M05 A3018 RMK AO1
KIPL 
45nm SE 
230353Z AUTO 24003KT 10SM CLR 11/M07 A3017 RMK AO2 SLP216 T01061067 TSNO
KL18 
47nm W 
230415Z AUTO 01008KT 10SM CLR 11/M03 A3017 RMK AO2
KNKX 
47nm SW 
230355Z 07005KT 10SM CLR 09/02 A3016 RMK AO2 SLP209 T00940022 $
TAF
KTRM 
24nm N 
221720Z 2218/2318 VRB06KT P6SM FEW250
NOTAMs
Click for the latest NOTAMs
NOTAMs are issued by the DoD/FAA and will open in a separate window not controlled by AirNav.

 

 
 

FBO, Fuel Providers, and Aircraft Ground Support

  
 Business Name 
 
 Contact 
 
 Services / Description 
 
Fuel Prices
 
Comments
  
Borrego Valley Airport 760-767-7415
no information available

If you are affiliated with Borrego Valley Airport and would like to show here your services, contact info, web link, logo, and more, click here
100LL
SS $4.48 
 Updated 28-Dec-2017
 
   2 read write
SS=Self service
Update Fuel Prices
 

Would you like to see your business listed on this page?

 If your business provides an interesting product or service to pilots, flight crews, aircraft, or users of the Borrego Valley Airport, you should consider listing it here.  To start the listing process, click on the button below
 
Add a business
 

Other Pages about Borrego Valley Airport

www.sandiegocounty.gov/...
www.borregospringschamber.com/airport.html
 
Update a link
 
Copyright © AirNav, LLC. All rights reserved. Privacy Policy  Contact